This is the latest recevied weather packets stored in our database for station/object KB0BS-13. If no packets are shown the sender has not sent any weather packets the latest 10 day(s).
| Time | Temp. | Humidity | Pressure | Rain* | Wind** | Luminosity | Snow |
|---|---|---|---|---|---|---|---|
| 1777958851 | 6.67° C | 72% | 999.9 hPa | 0 mm | - | 0 W/m² | - |
| 1777958548 | 7.22° C | 70% | 1000 hPa | 0 mm | - | 0 W/m² | - |
| 1777958245 | 7.22° C | 69% | 1000.1 hPa | 0 mm | - | 0 W/m² | - |
| 1777957943 | 7.22° C | 69% | 999.9 hPa | 0 mm | - | 0 W/m² | - |
| 1777957640 | 7.22° C | 68% | 999.9 hPa | 0 mm | - | 0 W/m² | - |
| 1777957339 | 7.22° C | 70% | 999.7 hPa | 0 mm | - | 0 W/m² | - |
| 1777957034 | 7.22° C | 71% | 999.8 hPa | 0 mm | - | 0 W/m² | - |
| 1777956732 | 7.22° C | 71% | 999.7 hPa | 0 mm | - | 0 W/m² | - |
| 1777956428 | 7.22° C | 70% | 999.9 hPa | 0 mm | - | 0 W/m² | - |
| 1777956125 | 7.22° C | 70% | 999.6 hPa | 0 mm | - | 0 W/m² | - |
| 1777955822 | 7.22° C | 73% | 999.5 hPa | 0 mm | - | 0 W/m² | - |
| 1777955518 | 7.22° C | 71% | 999.6 hPa | 0 mm | - | 0 W/m² | - |
| 1777955214 | 7.22° C | 72% | 999.6 hPa | 0 mm | - | 0 W/m² | - |
| 1777954912 | 7.22° C | 71% | 999.7 hPa | 0 mm | - | 0 W/m² | - |
| 1777954608 | 7.22° C | 74% | 999.6 hPa | 0 mm | - | 0 W/m² | - |
| 1777954306 | 7.22° C | 73% | 999.9 hPa | 0 mm | - | 0 W/m² | - |
| 1777954002 | 7.22° C | 70% | 999.7 hPa | 0 mm | - | 0 W/m² | - |
| 1777953700 | 7.22° C | 74% | 999.7 hPa | 0 mm | - | 0 W/m² | - |
| 1777953396 | 7.22° C | 74% | 999.4 hPa | 0 mm | - | 0 W/m² | - |
| 1777953092 | 7.22° C | 75% | 999.6 hPa | 0 mm | - | 0 W/m² | - |
| 1777952789 | 7.22° C | 75% | 999.5 hPa | 0 mm | - | 0 W/m² | - |
| 1777952486 | 7.78° C | 75% | 999.6 hPa | 0 mm | - | 0 W/m² | - |
| 1777952182 | 7.22° C | 76% | 999.5 hPa | 0 mm | - | 0 W/m² | - |
| 1777951881 | 7.22° C | 77% | 999.3 hPa | 0 mm | - | 0 W/m² | - |
| 1777951579 | 7.22° C | 79% | 999.4 hPa | 0 mm | - | 0 W/m² | - |
* Rain latest hour (hover to see other rain measurements)
** Current wind speed in m/s (hover to see current wind gust speed)